Weather Roundup
Issued by NWS

Home | Current Version | Previous Version | Text Only | Print | Product List | Glossary On
Versions: 1 2 3 4 5 6 7 8 9 10 11 12 13 14 15 16 17 18 19 20 21 22 23 24 25 26 27 28 29 30 31 32 33 34 35 36 37 38 39 40 41 42 43 44 45 46 47 48 49 50
299
NZUS93 KARX 232059
HRRWXR

CURRENT HOURLY OBSERVATIONS ACROSS
MUCH OF THE UPPER MISSISSIPPI VALLEY
NATIONAL WEATHER SERVICE LA CROSSE WI
300 PM CST THU FEB 23 2017


...SOUTHEAST MINNESOTA...


CITY           SKY/WX    TMP DP  RH WIND       PRES   REMARKS
ROCHESTER      CLOUDY    39  31  72 NE20      29.81F WCI  29
ROCHESTER/MAYO CLOUDY    38  30  71 N12       29.83F WCI  31
WINONA           N/A     41  30  65 N6        29.85S
AUSTIN         CLOUDY    37  30  75 NE14      29.79F WCI  29
ALBERT LEA     CLOUDY    37  32  81 NE18      29.79F WCI  27
DODGE CENTER   CLOUDY    37  30  75 NE13G20   29.81F WCI  29
PRESTON        CLOUDY    39  31  72 N17       29.77F WCI  30
OWATONNA       CLOUDY    36  27  69 N14G21    29.84F WCI  27
FARIBAULT      CLOUDY    36  28  75 N16G22    29.85F WCI  26
$$

...ELSEWHERE IN MINNESOTA...


CITY           SKY/WX    TMP DP  RH WIND       PRES   REMARKS
MINNEAPOLIS    CLOUDY    34  23  64 N14       29.90S WCI  25
INTNL FALLS    SUNNY     27  11  51 NW8G18    29.97R WCI  19
DULUTH         PTSUNNY   29  22  75 NW9       29.92R WCI  20
RED WING       CLOUDY    39  25  56 NE6       29.86F WCI  35
REDWOOD FALLS  CLOUDY    32  23  69 N10       29.90S WCI  24
MANKATO          N/A     35  25  66 NE21      29.85F WCI  24
WORTHINGTON    FLURRIES  30  26  85 N24G31    29.81F WCI  16
FAIRMONT       CLOUDY    34  29  82 N14       29.84S WCI  25
$$

...SOUTHWEST WISCONSIN...


CITY           SKY/WX    TMP DP  RH WIND       PRES   REMARKS
LA CROSSE      CLOUDY    47  31  53 NE7       29.82F
PRAIRIE DU CHI CLOUDY    46  32  57 NE9G17    29.76F
BOSCOBEL       CLOUDY    47  33  58 E10G18    29.78F
LONE ROCK      NOT AVBL
PLATTEVILLE    CLOUDY    44  39  83 E14       29.77F
FORT MC COY    MOSUNNY   44  32  62 E9        29.83F
MAUSTON-NEW LI MOCLDY    44  32  60 NE3       29.82F
VIROQUA        FAIR      42  32  67 NE12      29.79F
WIS DELLS      CLOUDY    44  32  61 SE7       29.81F
$$

...ELSEWHERE IN WISCONSIN...


CITY           SKY/WX    TMP DP  RH WIND       PRES   REMARKS
MILWAUKEE      CLOUDY    38  31  76 NE16      29.86R WCI  29
MADISON        CLOUDY    44  34  67 E12       29.81F
GREEN BAY      SUNNY     43  32  65 NE12      29.84F
EAU CLAIRE     NOT AVBL
BLACK RVR FLS  CLOUDY    44  28  51 NE7       29.83F
MEDFORD        MOSUNNY   39  26  59 NE9       29.82F WCI  33
WAUSAU         PTSUNNY   41  23  48 NE7       29.82F
WIS RAPIDS     PTSUNNY   46  27  47 E9        29.83R
MARSHFIELD     CLOUDY    41  28  60 NE9       29.82R
RICE LAKE      CLOUDY    36  26  68 N8        29.91S WCI  29
$$

...NORTHEAST IOWA...


CITY           SKY/WX    TMP DP  RH WIND       PRES   REMARKS
WATERLOO       CLOUDY    43  34  70 E17       29.71F
DUBUQUE        CLOUDY    43  37  79 NE14      29.75R
DECORAH        PTSUNNY   43  32  65 NE12G21   29.75S
MASON CITY     CLOUDY    39  33  79 NE18G25   29.77R WCI  30
CHARLES CITY   CLOUDY    43  37  81 NE18G25   29.74S
OELWEIN        CLOUDY    45  37  76 E14G20    29.72S
$$

...ELSEWHERE IN IOWA...


CITY           SKY/WX    TMP DP  RH WIND       PRES   REMARKS
DES MOINES     CLOUDY    46  37  71 NE17G24   29.61F
IOWA CITY      CLOUDY    47  39  74 E13       29.72F
FORT DODGE     CLOUDY    37  30  75 NE16G22   29.72F WCI  28
MARSHALLTOWN   CLOUDY    43  38  82 E13       29.67S
CEDAR RAPIDS   CLOUDY    43  40  89 E12       29.70S
$$

...NORTHERN ILLINOIS...


CITY           SKY/WX    TMP DP  RH WIND       PRES   REMARKS
CHICAGO-OHARE  CLOUDY    42  35  76 NE13      29.81S
CHICAGO-MIDWAY CLOUDY    42  35  76 NE18      29.81F
MOLINE         LGT RAIN  50  43  77 E12       29.72S
ROCKFORD       LGT RAIN  44  38  79 E16       29.77F
PEORIA         CLOUDY    51  46  83 NE9       29.70S
$$

NOTE: "FAIR" INDICATES FEW OR NO CLOUDS BELOW 12,000 FEET WITH NO
SIGNIFICANT WEATHER AND/OR OBSTRUCTIONS TO VISIBILITY. WIND
SPEEDS ARE IN MILES-PER-HOUR.




USA.gov is the U.S. government's official web portal to all federal, state and local government web resources and services.